Time,TemperatureF,DewpointF,PressureIn,WindDirection,WindDirectionDegrees,WindSpeedMPH,WindSpeedGustMPH,Humidity,HourlyPrecipIn,Conditions,Clouds,dailyrainin,SoftwareType,DateUTC
2013-02-03 00:01:00,39.5,30.9,30.17,West,279,1.0,2.0,71,0.00,,,0.00,Wunderground v.1.15,2013-02-03 06:01:00,
2013-02-03 00:07:00,39.5,30.9,30.17,West,267,1.0,2.0,71,0.00,,,0.00,Wunderground v.1.15,2013-02-03 06:07:00,
2013-02-03 00:13:00,39.4,30.8,30.18,West,279,1.0,1.0,71,0.00,,,0.00,Wunderground v.1.15,2013-02-03 06:13:00,
2013-02-03 00:19:00,39.4,30.4,30.18,WNW,289,0.0,1.0,70,0.00,,,0.00,Wunderground v.1.15,2013-02-03 06:19:00,
2013-02-03 00:25:00,39.3,30.3,30.18,West,265,4.0,4.0,70,0.00,,,0.00,Wunderground v.1.15,2013-02-03 06:25:00,
2013-02-03 00:30:00,39.3,30.0,30.18,WSW,257,3.0,3.0,69,0.00,,,0.00,Wunderground v.1.15,2013-02-03 06:30:00,
2013-02-03 00:36:00,39.4,29.7,30.18,WNW,287,1.0,4.0,68,0.00,,,0.00,Wunderground v.1.15,2013-02-03 06:36:00,
2013-02-03 00:42:00,39.6,29.9,30.19,NW,325,4.0,4.0,68,0.00,,,0.00,Wunderground v.1.15,2013-02-03 06:42:00,
2013-02-03 00:48:00,39.5,29.4,30.19,West,277,2.0,4.0,67,0.00,,,0.00,Wunderground v.1.15,2013-02-03 06:48:00,
2013-02-03 00:53:00,39.4,29.7,30.19,WNW,297,1.0,3.0,68,0.00,,,0.00,Wunderground v.1.15,2013-02-03 06:53:00,
2013-02-03 00:59:00,39.1,29.4,30.19,WSW,257,3.0,3.0,68,0.00,,,0.00,Wunderground v.1.15,2013-02-03 06:59:00,
2013-02-03 01:05:00,38.8,29.1,30.19,NNW,336,1.0,3.0,68,0.00,,,0.00,Wunderground v.1.15,2013-02-03 07:05:00,
2013-02-03 01:11:00,38.6,28.9,30.19,WNW,284,0.0,1.0,68,0.00,,,0.00,Wunderground v.1.15,2013-02-03 07:11:00,
2013-02-03 01:16:00,38.4,29.1,30.20,West,281,2.0,2.0,69,0.00,,,0.00,Wunderground v.1.15,2013-02-03 07:16:00,
2013-02-03 01:22:00,38.2,28.9,30.20,West,276,0.0,3.0,69,0.00,,,0.00,Wunderground v.1.15,2013-02-03 07:22:00,
2013-02-03 01:28:00,38.0,28.7,30.20,NW,306,1.0,3.0,69,0.00,,,0.00,Wunderground v.1.15,2013-02-03 07:28:00,
2013-02-03 01:34:00,37.8,28.5,30.20,WSW,252,2.0,2.0,69,0.00,,,0.00,Wunderground v.1.15,2013-02-03 07:34:00,
2013-02-03 01:39:00,37.8,28.5,30.20,NW,323,3.0,3.0,69,0.00,,,0.00,Wunderground v.1.15,2013-02-03 07:39:00,
2013-02-03 01:45:00,37.9,28.6,30.20,West,267,2.0,3.0,69,0.00,,,0.00,Wunderground v.1.15,2013-02-03 07:45:00,
2013-02-03 01:51:00,38.1,28.5,30.20,NNW,337,1.0,2.0,68,0.00,,,0.00,Wunderground v.1.15,2013-02-03 07:51:00,
2013-02-03 01:57:00,38.3,28.3,30.20,West,281,2.0,2.0,67,0.00,,,0.00,Wunderground v.1.15,2013-02-03 07:57:00,
2013-02-03 02:02:00,38.5,28.1,30.20,SW,236,2.0,7.0,66,0.00,,,0.00,Wunderground v.1.15,2013-02-03 08:02:00,
2013-02-03 02:07:00,38.7,27.9,30.21,WNW,302,1.0,7.0,65,0.00,,,0.00,Wunderground v.1.15,2013-02-03 08:07:00,
2013-02-03 02:12:00,38.8,27.7,30.21,South,191,2.0,5.0,64,0.00,,,0.00,Wunderground v.1.15,2013-02-03 08:12:00,
2013-02-03 02:17:00,38.9,27.8,30.21,North,11,0.0,5.0,64,0.00,,,0.00,Wunderground v.1.15,2013-02-03 08:17:00,
2013-02-03 02:22:00,38.8,27.7,30.21,WSW,257,1.0,5.0,64,0.00,,,0.00,Wunderground v.1.15,2013-02-03 08:22:00,
2013-02-03 02:27:00,38.7,27.6,30.21,NNW,328,1.0,5.0,64,0.00,,,0.00,Wunderground v.1.15,2013-02-03 08:27:00,
2013-02-03 02:32:00,38.6,27.8,30.21,WSW,253,2.0,3.0,65,0.00,,,0.00,Wunderground v.1.15,2013-02-03 08:32:00,
2013-02-03 02:37:00,38.4,27.7,30.21,NW,304,2.0,3.0,65,0.00,,,0.00,Wunderground v.1.15,2013-02-03 08:37:00,
2013-02-03 02:42:00,38.2,27.5,30.22,West,276,3.0,3.0,65,0.00,,,0.00,Wunderground v.1.15,2013-02-03 08:42:00,
2013-02-03 02:47:00,38.0,27.6,30.22,NNE,18,1.0,3.0,66,0.00,,,0.00,Wunderground v.1.15,2013-02-03 08:47:00,
2013-02-03 02:52:00,37.9,27.5,30.22,WSW,247,3.0,5.0,66,0.00,,,0.00,Wunderground v.1.15,2013-02-03 08:52:00,
2013-02-03 02:57:00,37.9,27.5,30.22,NNE,17,1.0,5.0,66,0.00,,,0.00,Wunderground v.1.15,2013-02-03 08:57:00,
2013-02-03 03:02:00,37.8,27.5,30.22,NNW,331,2.0,4.0,66,0.00,,,0.00,Wunderground v.1.15,2013-02-03 09:02:00,
2013-02-03 03:07:00,37.8,27.5,30.22,WNW,288,1.0,4.0,66,0.00,,,0.00,Wunderground v.1.15,2013-02-03 09:07:00,
2013-02-03 03:12:00,37.7,27.4,30.22,NNW,334,1.0,5.0,66,0.00,,,0.00,Wunderground v.1.15,2013-02-03 09:12:00,
2013-02-03 03:17:00,37.5,27.2,30.22,ENE,63,0.0,5.0,66,0.00,,,0.00,Wunderground v.1.15,2013-02-03 09:17:00,
2013-02-03 03:22:00,37.4,27.1,30.22,WNW,293,2.0,3.0,66,0.00,,,0.00,Wunderground v.1.15,2013-02-03 09:22:00,
2013-02-03 03:27:00,37.1,27.2,30.22,WNW,292,2.0,3.0,67,0.00,,,0.00,Wunderground v.1.15,2013-02-03 09:27:00,
2013-02-03 03:32:00,36.9,27.3,30.23,West,280,1.0,3.0,68,0.00,,,0.00,Wunderground v.1.15,2013-02-03 09:32:00,
2013-02-03 03:37:00,36.8,27.2,30.23,West,275,0.0,3.0,68,0.00,,,0.00,Wunderground v.1.15,2013-02-03 09:37:00,
2013-02-03 03:42:00,36.7,27.1,30.23,NW,314,0.0,2.0,68,0.00,,,0.00,Wunderground v.1.15,2013-02-03 09:42:00,
2013-02-03 03:47:00,36.5,27.3,30.23,NW,315,1.0,3.0,69,0.00,,,0.00,Wunderground v.1.15,2013-02-03 09:47:00,
2013-02-03 03:52:00,36.4,27.2,30.23,WNW,288,0.0,4.0,69,0.00,,,0.00,Wunderground v.1.15,2013-02-03 09:52:00,
2013-02-03 03:57:00,36.2,27.0,30.23,North,355,1.0,4.0,69,0.00,,,0.00,Wunderground v.1.15,2013-02-03 09:57:00,
2013-02-03 04:02:00,36.0,26.8,30.23,NNW,344,1.0,3.0,69,0.00,,,0.00,Wunderground v.1.15,2013-02-03 10:02:00,
2013-02-03 04:07:00,35.9,27.1,30.23,NNW,344,1.0,3.0,70,0.00,,,0.00,Wunderground v.1.15,2013-02-03 10:07:00,
2013-02-03 04:12:00,35.8,27.0,30.24,WNW,284,2.0,4.0,70,0.00,,,0.00,Wunderground v.1.15,2013-02-03 10:12:00,
2013-02-03 04:17:00,35.8,27.0,30.24,WNW,295,1.0,4.0,70,0.00,,,0.00,Wunderground v.1.15,2013-02-03 10:17:00,
2013-02-03 04:22:00,35.7,26.9,30.24,WSW,254,0.0,2.0,70,0.00,,,0.00,Wunderground v.1.15,2013-02-03 10:22:00,
2013-02-03 04:27:00,35.5,26.7,30.24,WSW,257,0.0,2.0,70,0.00,,,0.00,Wunderground v.1.15,2013-02-03 10:27:00,
2013-02-03 04:32:00,35.3,26.8,30.24,West,273,0.0,4.0,71,0.00,,,0.00,Wunderground v.1.15,2013-02-03 10:32:00,
2013-02-03 04:37:00,35.1,26.6,30.24,West,273,0.0,4.0,71,0.00,,,0.00,Wunderground v.1.15,2013-02-03 10:37:00,
2013-02-03 04:42:00,34.9,26.8,30.24,West,273,0.0,2.0,72,0.00,,,0.00,Wunderground v.1.15,2013-02-03 10:42:00,
2013-02-03 04:47:00,34.7,26.6,30.24,WNW,303,0.0,3.0,72,0.00,,,0.00,Wunderground v.1.15,2013-02-03 10:47:00,
2013-02-03 04:52:00,34.5,26.7,30.24,NNW,327,1.0,3.0,73,0.00,,,0.00,Wunderground v.1.15,2013-02-03 10:52:00,
2013-02-03 04:57:00,34.4,26.6,30.25,West,279,2.0,4.0,73,0.00,,,0.00,Wunderground v.1.15,2013-02-03 10:57:00,
2013-02-03 05:02:00,34.3,26.5,30.24,WNW,288,0.0,1.0,73,0.00,,,0.00,Wunderground v.1.15,2013-02-03 11:02:00,
2013-02-03 05:07:00,34.1,26.3,30.24,WNW,288,1.0,2.0,73,0.00,,,0.00,Wunderground v.1.15,2013-02-03 11:07:00,
2013-02-03 05:12:00,34.0,26.6,30.24,WNW,288,0.0,2.0,74,0.00,,,0.00,Wunderground v.1.15,2013-02-03 11:12:00,
2013-02-03 05:17:00,33.9,26.5,30.24,WNW,286,1.0,3.0,74,0.00,,,0.00,Wunderground v.1.15,2013-02-03 11:17:00,
2013-02-03 05:22:00,33.8,26.4,30.25,WNW,286,2.0,2.0,74,0.00,,,0.00,Wunderground v.1.15,2013-02-03 11:22:00,
2013-02-03 05:27:00,33.6,26.2,30.25,NW,307,2.0,2.0,74,0.00,,,0.00,Wunderground v.1.15,2013-02-03 11:27:00,
2013-02-03 05:32:00,33.5,26.4,30.25,NW,307,0.0,1.0,75,0.00,,,0.00,Wunderground v.1.15,2013-02-03 11:32:00,
2013-02-03 05:38:00,33.3,26.2,30.25,NW,307,0.0,1.0,75,0.00,,,0.00,Wunderground v.1.15,2013-02-03 11:38:00,
2013-02-03 05:43:00,33.2,26.1,30.25,NW,307,1.0,1.0,75,0.00,,,0.00,Wunderground v.1.15,2013-02-03 11:43:00,
2013-02-03 05:48:00,33.0,26.3,30.25,NW,307,0.0,1.0,76,0.00,,,0.00,Wunderground v.1.15,2013-02-03 11:48:00,
2013-02-03 05:53:00,32.9,26.2,30.25,WNW,284,0.0,3.0,76,0.00,,,0.00,Wunderground v.1.15,2013-02-03 11:53:00,
2013-02-03 05:58:00,32.8,26.1,30.25,WNW,284,1.0,3.0,76,0.00,,,0.00,Wunderground v.1.15,2013-02-03 11:58:00,
2013-02-03 06:03:00,32.8,26.1,30.25,WNW,282,1.0,2.0,76,0.00,,,0.00,Wunderground v.1.15,2013-02-03 12:03:00,
2013-02-03 06:08:00,32.8,26.1,30.25,WNW,284,1.0,4.0,76,0.00,,,0.00,Wunderground v.1.15,2013-02-03 12:08:00,
2013-02-03 06:13:00,32.8,26.1,30.26,WNW,284,0.0,1.0,76,0.00,,,0.00,Wunderground v.1.15,2013-02-03 12:13:00,
2013-02-03 06:18:00,32.6,26.2,30.26,WNW,284,1.0,3.0,77,0.00,,,0.00,Wunderground v.1.15,2013-02-03 12:18:00,
2013-02-03 06:23:00,32.5,26.1,30.26,WNW,284,1.0,1.0,77,0.00,,,0.00,Wunderground v.1.15,2013-02-03 12:23:00,
2013-02-03 06:28:00,32.3,25.9,30.26,WNW,284,0.0,2.0,77,0.00,,,0.00,Wunderground v.1.15,2013-02-03 12:28:00,
2013-02-03 06:33:00,32.0,25.9,30.26,WNW,284,0.0,1.0,78,0.00,,,0.00,Wunderground v.1.15,2013-02-03 12:33:00,
2013-02-03 06:38:00,31.8,25.7,30.26,WNW,284,1.0,1.0,78,0.00,,,0.00,Wunderground v.1.15,2013-02-03 12:38:00,
2013-02-03 06:43:00,31.7,25.9,30.27,WNW,284,0.0,2.0,79,0.00,,,0.00,Wunderground v.1.15,2013-02-03 12:43:00,
2013-02-03 06:48:00,31.6,25.8,30.26,WNW,284,0.0,2.0,79,0.00,,,0.00,Wunderground v.1.15,2013-02-03 12:48:00,
2013-02-03 06:53:00,31.5,25.7,30.27,WNW,284,0.0,2.0,79,0.00,,,0.00,Wunderground v.1.15,2013-02-03 12:53:00,
2013-02-03 06:58:00,31.4,25.9,30.27,WNW,284,0.0,2.0,80,0.00,,,0.00,Wunderground v.1.15,2013-02-03 12:58:00,
2013-02-03 07:03:00,31.5,26.0,30.27,WNW,284,1.0,1.0,80,0.00,,,0.00,Wunderground v.1.15,2013-02-03 13:03:00,
2013-02-03 07:08:00,31.5,26.0,30.27,West,278,0.0,5.0,80,0.00,,,0.00,Wunderground v.1.15,2013-02-03 13:08:00,
2013-02-03 07:13:00,31.6,25.8,30.27,West,278,0.0,2.0,79,0.00,,,0.00,Wunderground v.1.15,2013-02-03 13:13:00,
2013-02-03 07:18:00,31.6,25.8,30.27,West,277,0.0,2.0,79,0.00,,,0.00,Wunderground v.1.15,2013-02-03 13:18:00,
2013-02-03 07:23:00,31.7,25.9,30.28,West,281,0.0,3.0,79,0.00,,,0.00,Wunderground v.1.15,2013-02-03 13:23:00,
2013-02-03 07:28:00,31.7,25.6,30.28,West,281,1.0,3.0,78,0.00,,,0.00,Wunderground v.1.15,2013-02-03 13:28:00,
2013-02-03 07:33:00,31.7,25.6,30.28,West,281,1.0,2.0,78,0.00,,,0.00,Wunderground v.1.15,2013-02-03 13:33:00,
2013-02-03 07:38:00,31.6,25.5,30.28,West,281,0.0,2.0,78,0.00,,,0.00,Wunderground v.1.15,2013-02-03 13:38:00,
2013-02-03 07:43:00,31.5,25.4,30.28,West,281,0.0,1.0,78,0.00,,,0.00,Wunderground v.1.15,2013-02-03 13:43:00,
2013-02-03 07:48:00,31.5,25.4,30.28,West,281,0.0,2.0,78,0.00,,,0.00,Wunderground v.1.15,2013-02-03 13:48:00,
2013-02-03 07:53:00,31.6,25.5,30.29,West,281,0.0,1.0,78,0.00,,,0.00,Wunderground v.1.15,2013-02-03 13:53:00,
2013-02-03 07:58:00,31.7,25.6,30.30,West,281,1.0,1.0,78,0.00,,,0.00,Wunderground v.1.15,2013-02-03 13:58:00,
2013-02-03 08:03:00,31.9,25.8,30.30,West,281,0.0,1.0,78,0.00,,,0.00,Wunderground v.1.15,2013-02-03 14:03:00,
2013-02-03 08:08:00,32.3,26.2,30.30,West,281,1.0,2.0,78,0.00,,,0.00,Wunderground v.1.15,2013-02-03 14:08:00,
2013-02-03 08:13:00,32.6,26.2,30.30,West,281,0.0,2.0,77,0.00,,,0.00,Wunderground v.1.15,2013-02-03 14:13:00,
2013-02-03 08:18:00,33.1,26.7,30.30,West,281,0.0,3.0,77,0.00,,,0.00,Wunderground v.1.15,2013-02-03 14:18:00,
2013-02-03 08:23:00,33.6,26.5,30.30,West,278,0.0,4.0,75,0.00,,,0.00,Wunderground v.1.15,2013-02-03 14:23:00,
2013-02-03 08:28:00,34.3,27.2,30.30,West,278,0.0,4.0,75,0.00,,,0.00,Wunderground v.1.15,2013-02-03 14:28:00,
2013-02-03 08:33:00,35.0,26.9,30.31,West,278,0.0,3.0,72,0.00,,,0.00,Wunderground v.1.15,2013-02-03 14:33:00,
2013-02-03 08:38:00,35.5,27.0,30.30,West,278,0.0,3.0,71,0.00,,,0.00,Wunderground v.1.15,2013-02-03 14:38:00,
2013-02-03 08:43:00,36.0,27.2,30.30,West,281,0.0,3.0,70,0.00,,,0.00,Wunderground v.1.15,2013-02-03 14:43:00,
2013-02-03 08:48:00,36.6,27.4,30.30,West,281,1.0,3.0,69,0.00,,,0.00,Wunderground v.1.15,2013-02-03 14:48:00,
2013-02-03 08:53:00,37.4,27.4,30.30,West,281,0.0,1.0,67,0.00,,,0.00,Wunderground v.1.15,2013-02-03 14:53:00,
2013-02-03 08:58:00,38.3,27.9,30.30,West,281,0.0,1.0,66,0.00,,,0.00,Wunderground v.1.15,2013-02-03 14:58:00,
2013-02-03 09:03:00,39.1,27.6,30.29,NW,326,1.0,4.0,63,0.00,,,0.00,Wunderground v.1.15,2013-02-03 15:03:00,
2013-02-03 09:08:00,39.6,27.6,30.29,NW,326,1.0,4.0,62,0.00,,,0.00,Wunderground v.1.15,2013-02-03 15:08:00,
2013-02-03 09:13:00,40.1,27.3,30.29,NW,326,0.0,2.0,60,0.00,,,0.00,Wunderground v.1.15,2013-02-03 15:13:00,
2013-02-03 09:18:00,40.7,27.1,30.28,NW,326,1.0,3.0,58,0.00,,,0.00,Wunderground v.1.15,2013-02-03 15:18:00,
2013-02-03 09:23:00,41.1,27.0,30.28,NW,321,0.0,3.0,57,0.00,,,0.00,Wunderground v.1.15,2013-02-03 15:23:00,
2013-02-03 09:28:00,41.5,26.5,30.28,NW,321,1.0,3.0,55,0.00,,,0.00,Wunderground v.1.15,2013-02-03 15:28:00,
2013-02-03 09:33:00,41.8,26.4,30.27,NW,321,1.0,2.0,54,0.00,,,0.00,Wunderground v.1.15,2013-02-03 15:33:00,
2013-02-03 09:38:00,42.3,25.9,30.27,NW,321,1.0,4.0,52,0.00,,,0.00,Wunderground v.1.15,2013-02-03 15:38:00,
2013-02-03 09:43:00,42.7,25.8,30.27,NW,321,2.0,3.0,51,0.00,,,0.00,Wunderground v.1.15,2013-02-03 15:43:00,
2013-02-03 09:48:00,42.8,24.9,30.27,WNW,290,1.0,4.0,49,0.00,,,0.00,Wunderground v.1.15,2013-02-03 15:48:00,
2013-02-03 09:53:00,42.6,23.2,30.26,North,5,1.0,3.0,46,0.00,,,0.00,Wunderground v.1.15,2013-02-03 15:53:00,
2013-02-03 09:58:00,42.7,23.8,30.26,North,5,2.0,3.0,47,0.00,,,0.00,Wunderground v.1.15,2013-02-03 15:58:00,
2013-02-03 10:03:00,41.9,22.6,30.26,NE,51,1.0,7.0,46,0.00,,,0.00,Wunderground v.1.15,2013-02-03 16:03:00,
2013-02-03 10:08:00,41.6,23.8,30.26,NE,51,2.0,7.0,49,0.00,,,0.00,Wunderground v.1.15,2013-02-03 16:08:00,
2013-02-03 10:13:00,42.2,21.3,30.26,NNE,26,4.0,8.0,43,0.00,,,0.00,Wunderground v.1.15,2013-02-03 16:13:00,
2013-02-03 10:18:00,42.0,18.8,30.25,NE,36,6.0,8.0,39,0.00,,,0.00,Wunderground v.1.15,2013-02-03 16:18:00,
2013-02-03 10:23:00,42.2,20.2,30.25,NE,34,3.0,5.0,41,0.00,,,0.00,Wunderground v.1.15,2013-02-03 16:23:00,
2013-02-03 10:28:00,41.9,19.3,30.25,NE,40,2.0,6.0,40,0.00,,,0.00,Wunderground v.1.15,2013-02-03 16:28:00,
2013-02-03 10:33:00,40.9,19.5,30.25,ENE,67,3.0,6.0,42,0.00,,,0.00,Wunderground v.1.15,2013-02-03 16:33:00,
2013-02-03 10:38:00,41.1,20.3,30.25,NE,51,2.0,6.0,43,0.00,,,0.00,Wunderground v.1.15,2013-02-03 16:38:00,
2013-02-03 10:43:00,41.4,20.0,30.25,ENE,65,1.0,4.0,42,0.00,,,0.00,Wunderground v.1.15,2013-02-03 16:43:00,
2013-02-03 10:48:00,41.6,20.2,30.25,NE,38,3.0,7.0,42,0.00,,,0.00,Wunderground v.1.15,2013-02-03 16:48:00,
2013-02-03 10:53:00,41.9,20.4,30.24,NE,38,4.0,4.0,42,0.00,,,0.00,Wunderground v.1.15,2013-02-03 16:53:00,
2013-02-03 10:58:00,42.3,20.2,30.24,NE,38,2.0,4.0,41,0.00,,,0.00,Wunderground v.1.15,2013-02-03 16:58:00,
2013-02-03 11:03:00,42.3,20.2,30.24,NE,36,3.0,5.0,41,0.00,,,0.00,Wunderground v.1.15,2013-02-03 17:03:00,
2013-02-03 11:08:00,42.2,19.0,30.23,South,169,2.0,6.0,39,0.00,,,0.00,Wunderground v.1.15,2013-02-03 17:08:00,
2013-02-03 11:13:00,41.5,18.4,30.23,East,84,0.0,7.0,39,0.00,,,0.00,Wunderground v.1.15,2013-02-03 17:13:00,
2013-02-03 11:18:00,41.2,19.2,30.22,SSE,147,1.0,7.0,41,0.00,,,0.00,Wunderground v.1.15,2013-02-03 17:18:00,
2013-02-03 11:23:00,41.6,19.6,30.22,East,82,3.0,8.0,41,0.00,,,0.00,Wunderground v.1.15,2013-02-03 17:23:00,
2013-02-03 11:28:00,41.7,19.7,30.21,SE,130,2.0,8.0,41,0.00,,,0.00,Wunderground v.1.15,2013-02-03 17:28:00,
2013-02-03 11:33:00,42.4,20.3,30.21,ENE,76,2.0,5.0,41,0.00,,,0.00,Wunderground v.1.15,2013-02-03 17:33:00,
2013-02-03 11:38:00,42.9,19.0,30.20,ESE,113,3.0,7.0,38,0.00,,,0.00,Wunderground v.1.15,2013-02-03 17:38:00,
2013-02-03 11:43:00,43.0,19.7,30.20,ESE,107,3.0,6.0,39,0.00,,,0.00,Wunderground v.1.15,2013-02-03 17:43:00,
2013-02-03 11:48:00,42.8,18.9,30.20,ESE,121,4.0,6.0,38,0.00,,,0.00,Wunderground v.1.15,2013-02-03 17:48:00,
2013-02-03 11:53:00,42.7,18.8,30.20,SE,130,3.0,6.0,38,0.00,,,0.00,Wunderground v.1.15,2013-02-03 17:53:00,
2013-02-03 11:58:00,42.9,18.4,30.20,SSW,198,3.0,7.0,37,0.00,,,0.00,Wunderground v.1.15,2013-02-03 17:58:00,
2013-02-03 12:03:00,43.1,19.2,30.20,ESE,104,4.0,6.0,38,0.00,,,0.00,Wunderground v.1.15,2013-02-03 18:03:00,
2013-02-03 12:08:00,43.0,19.1,30.20,SSE,160,2.0,6.0,38,0.00,,,0.00,Wunderground v.1.15,2013-02-03 18:08:00,
2013-02-03 12:13:00,43.8,19.8,30.19,SW,219,0.0,3.0,38,0.00,,,0.00,Wunderground v.1.15,2013-02-03 18:13:00,
2013-02-03 12:18:00,44.5,19.8,30.19,SSE,163,3.0,5.0,37,0.00,,,0.00,Wunderground v.1.15,2013-02-03 18:18:00,
2013-02-03 12:23:00,44.3,20.3,30.18,SSE,157,3.0,6.0,38,0.00,,,0.00,Wunderground v.1.15,2013-02-03 18:23:00,
2013-02-03 12:28:00,44.4,19.7,30.18,WSW,239,2.0,6.0,37,0.00,,,0.00,Wunderground v.1.15,2013-02-03 18:28:00,
2013-02-03 12:33:00,44.9,19.5,30.18,SE,142,2.0,6.0,36,0.00,,,0.00,Wunderground v.1.15,2013-02-03 18:33:00,
2013-02-03 12:38:00,45.2,19.8,30.18,West,259,2.0,6.0,36,0.00,,,0.00,Wunderground v.1.15,2013-02-03 18:38:00,
2013-02-03 12:43:00,46.3,20.1,30.17,ESE,103,7.0,7.0,35,0.00,,,0.00,Wunderground v.1.15,2013-02-03 18:43:00,
2013-02-03 12:48:00,46.4,18.8,30.17,SSE,163,2.0,7.0,33,0.00,,,0.00,Wunderground v.1.15,2013-02-03 18:48:00,
2013-02-03 12:53:00,46.1,18.6,30.16,SSE,151,4.0,8.0,33,0.00,,,0.00,Wunderground v.1.15,2013-02-03 18:53:00,
2013-02-03 12:58:00,46.4,19.5,30.16,SE,133,5.0,8.0,34,0.00,,,0.00,Wunderground v.1.15,2013-02-03 18:58:00,
2013-02-03 13:03:00,46.7,19.8,30.16,SW,225,3.0,6.0,34,0.00,,,0.00,Wunderground v.1.15,2013-02-03 19:03:00,
2013-02-03 13:08:00,47.4,19.7,30.15,WSW,248,6.0,8.0,33,0.00,,,0.00,Wunderground v.1.15,2013-02-03 19:08:00,
2013-02-03 13:13:00,47.9,20.1,30.15,SSE,159,3.0,4.0,33,0.00,,,0.00,Wunderground v.1.15,2013-02-03 19:13:00,
2013-02-03 13:18:00,48.1,19.6,30.14,West,281,3.0,5.0,32,0.00,,,0.00,Wunderground v.1.15,2013-02-03 19:18:00,
2013-02-03 13:23:00,48.1,19.6,30.14,SE,146,1.0,7.0,32,0.00,,,0.00,Wunderground v.1.15,2013-02-03 19:23:00,
2013-02-03 13:28:00,47.9,20.1,30.13,SE,127,2.0,7.0,33,0.00,,,0.00,Wunderground v.1.15,2013-02-03 19:28:00,
2013-02-03 13:33:00,48.2,20.4,30.13,SSE,148,2.0,7.0,33,0.00,,,0.00,Wunderground v.1.15,2013-02-03 19:33:00,
2013-02-03 13:38:00,48.1,20.3,30.12,SSE,164,4.0,7.0,33,0.00,,,0.00,Wunderground v.1.15,2013-02-03 19:38:00,
2013-02-03 13:43:00,48.3,20.5,30.12,East,83,6.0,7.0,33,0.00,,,0.00,Wunderground v.1.15,2013-02-03 19:43:00,
2013-02-03 13:48:00,48.3,21.2,30.12,SE,126,1.0,9.0,34,0.00,,,0.00,Wunderground v.1.15,2013-02-03 19:48:00,
2013-02-03 13:53:00,49.0,21.1,30.12,West,278,0.0,6.0,33,0.00,,,0.00,Wunderground v.1.15,2013-02-03 19:53:00,
2013-02-03 13:58:00,49.4,20.7,30.11,SW,218,4.0,10.0,32,0.00,,,0.00,Wunderground v.1.15,2013-02-03 19:58:00,
2013-02-03 14:03:00,49.2,21.3,30.11,SSE,152,3.0,7.0,33,0.00,,,0.00,Wunderground v.1.15,2013-02-03 20:03:00,
2013-02-03 14:08:00,49.2,21.3,30.10,ENE,74,4.0,8.0,33,0.00,,,0.00,Wunderground v.1.15,2013-02-03 20:08:00,
2013-02-03 14:13:00,49.5,21.5,30.10,South,175,3.0,12.0,33,0.00,,,0.00,Wunderground v.1.15,2013-02-03 20:13:00,
2013-02-03 14:18:00,49.2,20.6,30.10,SSE,163,2.0,12.0,32,0.00,,,0.00,Wunderground v.1.15,2013-02-03 20:18:00,
2013-02-03 14:23:00,49.3,20.6,30.10,SSE,148,4.0,7.0,32,0.00,,,0.00,Wunderground v.1.15,2013-02-03 20:23:00,
2013-02-03 14:28:00,49.2,19.8,30.09,South,170,3.0,9.0,31,0.00,,,0.00,Wunderground v.1.15,2013-02-03 20:28:00,
2013-02-03 14:33:00,49.7,20.2,30.09,SE,135,4.0,8.0,31,0.00,,,0.00,Wunderground v.1.15,2013-02-03 20:33:00,
2013-02-03 14:38:00,50.4,20.9,30.08,WSW,239,3.0,8.0,31,0.00,,,0.00,Wunderground v.1.15,2013-02-03 20:38:00,
2013-02-03 14:43:00,50.9,21.3,30.08,SW,228,2.0,5.0,31,0.00,,,0.00,Wunderground v.1.15,2013-02-03 20:43:00,
2013-02-03 14:48:00,51.0,20.6,30.08,SE,142,6.0,8.0,30,0.00,,,0.00,Wunderground v.1.15,2013-02-03 20:48:00,
2013-02-03 14:53:00,50.8,22.0,30.07,SSW,198,3.0,6.0,32,0.00,,,0.00,Wunderground v.1.15,2013-02-03 20:53:00,
2013-02-03 14:58:00,51.1,22.2,30.07,WSW,242,2.0,8.0,32,0.00,,,0.00,Wunderground v.1.15,2013-02-03 20:58:00,
2013-02-03 15:03:00,51.3,22.4,30.07,West,264,3.0,9.0,32,0.00,,,0.00,Wunderground v.1.15,2013-02-03 21:03:00,
2013-02-03 15:08:00,51.4,22.5,30.06,SSW,211,2.0,9.0,32,0.00,,,0.00,Wunderground v.1.15,2013-02-03 21:08:00,
2013-02-03 15:13:00,51.8,22.8,30.06,SSE,164,4.0,6.0,32,0.00,,,0.00,Wunderground v.1.15,2013-02-03 21:13:00,
2013-02-03 15:18:00,51.8,22.1,30.06,WSW,244,5.0,7.0,31,0.00,,,0.00,Wunderground v.1.15,2013-02-03 21:18:00,
2013-02-03 15:23:00,51.6,22.7,30.05,South,180,3.0,6.0,32,0.00,,,0.00,Wunderground v.1.15,2013-02-03 21:23:00,
2013-02-03 15:28:00,51.4,22.5,30.05,SW,216,2.0,8.0,32,0.00,,,0.00,Wunderground v.1.15,2013-02-03 21:28:00,
2013-02-03 15:33:00,51.7,22.0,30.04,West,262,6.0,8.0,31,0.00,,,0.00,Wunderground v.1.15,2013-02-03 21:33:00,
2013-02-03 15:38:00,52.0,23.0,30.04,SE,146,5.0,8.0,32,0.00,,,0.00,Wunderground v.1.15,2013-02-03 21:38:00,
2013-02-03 15:43:00,52.0,23.0,30.04,South,188,2.0,7.0,32,0.00,,,0.00,Wunderground v.1.15,2013-02-03 21:43:00,
2013-02-03 15:48:00,51.7,22.8,30.04,SSW,198,1.0,8.0,32,0.00,,,0.00,Wunderground v.1.15,2013-02-03 21:48:00,
2013-02-03 15:53:00,51.9,23.7,30.03,SSE,150,4.0,7.0,33,0.00,,,0.00,Wunderground v.1.15,2013-02-03 21:53:00,
2013-02-03 15:58:00,51.7,24.2,30.03,SW,233,6.0,10.0,34,0.00,,,0.00,Wunderground v.1.15,2013-02-03 21:58:00,
2013-02-03 16:03:00,51.5,24.7,30.03,WSW,239,2.0,5.0,35,0.00,,,0.00,Wunderground v.1.15,2013-02-03 22:03:00,
2013-02-03 16:08:00,51.3,23.8,30.03,South,187,4.0,9.0,34,0.00,,,0.00,Wunderground v.1.15,2013-02-03 22:08:00,
2013-02-03 16:13:00,51.1,23.0,30.03,SW,235,3.0,7.0,33,0.00,,,0.00,Wunderground v.1.15,2013-02-03 22:13:00,
2013-02-03 16:18:00,50.9,22.8,30.02,SSE,157,5.0,9.0,33,0.00,,,0.00,Wunderground v.1.15,2013-02-03 22:18:00,
2013-02-03 16:23:00,50.9,23.5,30.01,WSW,247,3.0,5.0,34,0.00,,,0.00,Wunderground v.1.15,2013-02-03 22:23:00,
2013-02-03 16:28:00,50.7,24.0,30.01,SSE,165,6.0,11.0,35,0.00,,,0.00,Wunderground v.1.15,2013-02-03 22:28:00,
2013-02-03 16:33:00,50.6,23.9,30.01,SE,146,6.0,10.0,35,0.00,,,0.00,Wunderground v.1.15,2013-02-03 22:33:00,
2013-02-03 16:38:00,50.5,23.8,30.00,South,169,6.0,10.0,35,0.00,,,0.00,Wunderground v.1.15,2013-02-03 22:38:00,
2013-02-03 16:43:00,50.4,24.4,30.00,SSE,160,2.0,10.0,36,0.00,,,0.00,Wunderground v.1.15,2013-02-03 22:43:00,
2013-02-03 16:48:00,50.3,25.0,29.99,SSE,159,3.0,10.0,37,0.00,,,0.00,Wunderground v.1.15,2013-02-03 22:48:00,
2013-02-03 16:53:00,50.3,25.0,29.99,SSW,197,3.0,8.0,37,0.00,,,0.00,Wunderground v.1.15,2013-02-03 22:53:00,
2013-02-03 16:58:00,50.1,24.8,29.99,South,171,2.0,10.0,37,0.00,,,0.00,Wunderground v.1.15,2013-02-03 22:58:00,
2013-02-03 17:03:00,50.1,25.5,29.99,SSE,160,2.0,10.0,38,0.00,,,0.00,Wunderground v.1.15,2013-02-03 23:03:00,
2013-02-03 17:08:00,49.9,25.3,29.99,West,279,5.0,10.0,38,0.00,,,0.00,Wunderground v.1.15,2013-02-03 23:08:00,
2013-02-03 17:13:00,49.5,24.9,29.99,SSE,167,1.0,7.0,38,0.00,,,0.00,Wunderground v.1.15,2013-02-03 23:13:00,
2013-02-03 17:18:00,49.4,24.8,29.99,SSE,155,2.0,7.0,38,0.00,,,0.00,Wunderground v.1.15,2013-02-03 23:18:00,
2013-02-03 17:23:00,49.1,25.2,29.99,South,178,4.0,7.0,39,0.00,,,0.00,Wunderground v.1.15,2013-02-03 23:23:00,
2013-02-03 17:28:00,49.0,25.1,29.99,SE,146,3.0,7.0,39,0.00,,,0.00,Wunderground v.1.15,2013-02-03 23:28:00,
2013-02-03 17:33:00,48.8,25.5,29.98,South,169,2.0,4.0,40,0.00,,,0.00,Wunderground v.1.15,2013-02-03 23:33:00,
2013-02-03 17:38:00,48.7,25.4,29.98,SW,219,2.0,4.0,40,0.00,,,0.00,Wunderground v.1.15,2013-02-03 23:38:00,
2013-02-03 17:43:00,48.6,25.3,29.99,SSE,157,3.0,4.0,40,0.00,,,0.00,Wunderground v.1.15,2013-02-03 23:43:00,
2013-02-03 17:48:00,48.5,25.2,29.98,South,175,2.0,7.0,40,0.00,,,0.00,Wunderground v.1.15,2013-02-03 23:48:00,
2013-02-03 17:53:00,48.3,25.7,29.98,SSE,159,0.0,7.0,41,0.00,,,0.00,Wunderground v.1.15,2013-02-03 23:53:00,
2013-02-03 17:58:00,48.2,25.6,29.98,South,169,2.0,7.0,41,0.00,,,0.00,Wunderground v.1.15,2013-02-03 23:58:00,
2013-02-03 18:03:00,48.0,26.0,29.98,South,190,3.0,7.0,42,0.00,,,0.00,Wunderground v.1.15,2013-02-04 00:03:00,
2013-02-03 18:08:00,47.9,26.5,29.98,SSE,167,1.0,7.0,43,0.00,,,0.00,Wunderground v.1.15,2013-02-04 00:08:00,
2013-02-03 18:13:00,47.7,26.3,29.98,SW,214,1.0,7.0,43,0.00,,,0.00,Wunderground v.1.15,2013-02-04 00:13:00,
2013-02-03 18:18:00,47.6,26.7,29.97,West,259,1.0,7.0,44,0.00,,,0.00,Wunderground v.1.15,2013-02-04 00:18:00,
2013-02-03 18:23:00,47.4,26.6,29.97,SSE,161,2.0,6.0,44,0.00,,,0.00,Wunderground v.1.15,2013-02-04 00:23:00,
2013-02-03 18:28:00,47.3,27.0,29.97,SE,146,2.0,6.0,45,0.00,,,0.00,Wunderground v.1.15,2013-02-04 00:28:00,
2013-02-03 18:33:00,47.1,26.8,29.97,SSE,161,2.0,5.0,45,0.00,,,0.00,Wunderground v.1.15,2013-02-04 00:33:00,
2013-02-03 18:38:00,46.9,26.6,29.97,South,173,1.0,5.0,45,0.00,,,0.00,Wunderground v.1.15,2013-02-04 00:38:00,
2013-02-03 18:43:00,46.8,27.1,29.96,SSE,157,3.0,5.0,46,0.00,,,0.00,Wunderground v.1.15,2013-02-04 00:43:00,
2013-02-03 18:48:00,46.6,26.9,29.96,South,173,2.0,8.0,46,0.00,,,0.00,Wunderground v.1.15,2013-02-04 00:48:00,
2013-02-03 18:53:00,46.4,26.7,29.96,South,177,3.0,6.0,46,0.00,,,0.00,Wunderground v.1.15,2013-02-04 00:53:00,
2013-02-03 18:58:00,46.2,27.1,29.96,SSE,165,1.0,6.0,47,0.00,,,0.00,Wunderground v.1.15,2013-02-04 00:58:00,
2013-02-03 19:03:00,46.1,27.0,29.95,SSE,163,1.0,4.0,47,0.00,,,0.00,Wunderground v.1.15,2013-02-04 01:03:00,
2013-02-03 19:08:00,46.0,26.9,29.95,South,180,1.0,4.0,47,0.00,,,0.00,Wunderground v.1.15,2013-02-04 01:08:00,
2013-02-03 19:13:00,45.8,27.2,29.95,SSE,165,3.0,6.0,48,0.00,,,0.00,Wunderground v.1.15,2013-02-04 01:13:00,
2013-02-03 19:18:00,45.6,27.0,29.95,SSE,161,2.0,6.0,48,0.00,,,0.00,Wunderground v.1.15,2013-02-04 01:18:00,
2013-02-03 19:23:00,45.5,26.9,29.95,SSE,162,1.0,4.0,48,0.00,,,0.00,Wunderground v.1.15,2013-02-04 01:23:00,
2013-02-03 19:28:00,45.4,27.3,29.95,South,188,3.0,4.0,49,0.00,,,0.00,Wunderground v.1.15,2013-02-04 01:28:00,
2013-02-03 19:33:00,45.3,27.2,29.95,SSW,204,4.0,5.0,49,0.00,,,0.00,Wunderground v.1.15,2013-02-04 01:33:00,
2013-02-03 19:38:00,45.2,27.2,29.94,South,176,3.0,6.0,49,0.00,,,0.00,Wunderground v.1.15,2013-02-04 01:38:00,
2013-02-03 19:43:00,45.1,27.6,29.94,SSW,210,2.0,4.0,50,0.00,,,0.00,Wunderground v.1.15,2013-02-04 01:43:00,
2013-02-03 19:48:00,45.1,27.6,29.94,SSW,207,3.0,5.0,50,0.00,,,0.00,Wunderground v.1.15,2013-02-04 01:48:00,
2013-02-03 19:53:00,45.0,27.5,29.93,SW,226,4.0,5.0,50,0.00,,,0.00,Wunderground v.1.15,2013-02-04 01:53:00,
2013-02-03 19:58:00,45.1,27.6,29.93,South,184,1.0,7.0,50,0.00,,,0.00,Wunderground v.1.15,2013-02-04 01:58:00,
2013-02-03 20:03:00,45.1,27.6,29.93,South,172,3.0,6.0,50,0.00,,,0.00,Wunderground v.1.15,2013-02-04 02:03:00,
2013-02-03 20:08:00,45.1,27.6,29.93,SSW,199,1.0,6.0,50,0.00,,,0.00,Wunderground v.1.15,2013-02-04 02:08:00,
2013-02-03 20:13:00,45.1,27.6,29.92,WSW,246,6.0,9.0,50,0.00,,,0.00,Wunderground v.1.15,2013-02-04 02:13:00,
2013-02-03 20:18:00,45.1,27.6,29.92,South,180,3.0,9.0,50,0.00,,,0.00,Wunderground v.1.15,2013-02-04 02:18:00,
2013-02-03 20:23:00,45.1,27.6,29.92,SW,223,2.0,8.0,50,0.00,,,0.00,Wunderground v.1.15,2013-02-04 02:23:00,
2013-02-03 20:28:00,45.0,27.9,29.92,SSE,167,4.0,8.0,51,0.00,,,0.00,Wunderground v.1.15,2013-02-04 02:28:00,
2013-02-03 20:33:00,45.0,27.9,29.92,SSW,194,1.0,6.0,51,0.00,,,0.00,Wunderground v.1.15,2013-02-04 02:33:00,
2013-02-03 20:38:00,45.0,27.9,29.92,SSW,209,2.0,7.0,51,0.00,,,0.00,Wunderground v.1.15,2013-02-04 02:38:00,
2013-02-03 20:43:00,45.1,28.0,29.91,SW,236,3.0,7.0,51,0.00,,,0.00,Wunderground v.1.15,2013-02-04 02:43:00,
2013-02-03 20:48:00,45.1,28.0,29.91,WSW,241,2.0,8.0,51,0.00,,,0.00,Wunderground v.1.15,2013-02-04 02:48:00,
2013-02-03 20:53:00,45.1,28.0,29.91,SSW,213,2.0,6.0,51,0.00,,,0.00,Wunderground v.1.15,2013-02-04 02:53:00,
2013-02-03 20:58:00,45.1,28.0,29.91,SSW,201,1.0,6.0,51,0.00,,,0.00,Wunderground v.1.15,2013-02-04 02:58:00,
2013-02-03 21:03:00,45.1,28.0,29.91,SW,227,2.0,10.0,51,0.00,,,0.00,Wunderground v.1.15,2013-02-04 03:03:00,
2013-02-03 21:08:00,45.1,28.0,29.90,SSE,150,3.0,10.0,51,0.00,,,0.00,Wunderground v.1.15,2013-02-04 03:08:00,
2013-02-03 21:13:00,45.1,28.0,29.90,SSW,206,5.0,7.0,51,0.00,,,0.00,Wunderground v.1.15,2013-02-04 03:13:00,
2013-02-03 21:18:00,45.1,28.0,29.90,South,180,4.0,7.0,51,0.00,,,0.00,Wunderground v.1.15,2013-02-04 03:18:00,
2013-02-03 21:23:00,45.0,27.9,29.90,West,264,5.0,8.0,51,0.00,,,0.00,Wunderground v.1.15,2013-02-04 03:23:00,
2013-02-03 21:28:00,45.0,28.4,29.89,SSE,165,4.0,8.0,52,0.00,,,0.00,Wunderground v.1.15,2013-02-04 03:28:00,
2013-02-03 21:33:00,44.9,28.3,29.89,SE,134,2.0,7.0,52,0.00,,,0.00,Wunderground v.1.15,2013-02-04 03:33:00,
2013-02-03 21:39:00,44.8,28.2,29.89,SSW,205,2.0,8.0,52,0.00,,,0.00,Wunderground v.1.15,2013-02-04 03:39:00,
2013-02-03 21:44:00,44.7,28.6,29.89,SW,230,4.0,6.0,53,0.00,,,0.00,Wunderground v.1.15,2013-02-04 03:44:00,
2013-02-03 21:49:00,44.6,28.5,29.89,SW,230,4.0,6.0,53,0.00,,,0.00,Wunderground v.1.15,2013-02-04 03:49:00,
2013-02-03 21:54:00,44.6,28.5,29.89,SW,224,1.0,4.0,53,0.00,,,0.00,Wunderground v.1.15,2013-02-04 03:54:00,
2013-02-03 21:59:00,44.5,28.4,29.89,South,171,2.0,5.0,53,0.00,,,0.00,Wunderground v.1.15,2013-02-04 03:59:00,
2013-02-03 22:04:00,44.5,28.4,29.88,WSW,238,1.0,5.0,53,0.00,,,0.00,Wunderground v.1.15,2013-02-04 04:04:00,
2013-02-03 22:09:00,44.5,28.4,29.88,SW,229,2.0,5.0,53,0.00,,,0.00,Wunderground v.1.15,2013-02-04 04:09:00,
2013-02-03 22:14:00,44.5,28.4,29.88,SSE,159,2.0,4.0,53,0.00,,,0.00,Wunderground v.1.15,2013-02-04 04:14:00,
2013-02-03 22:19:00,44.5,28.4,29.87,WSW,246,2.0,5.0,53,0.00,,,0.00,Wunderground v.1.15,2013-02-04 04:19:00,
2013-02-03 22:24:00,44.5,28.4,29.87,SSW,197,3.0,4.0,53,0.00,,,0.00,Wunderground v.1.15,2013-02-04 04:24:00,
2013-02-03 22:29:00,44.6,28.0,29.87,South,171,3.0,7.0,52,0.00,,,0.00,Wunderground v.1.15,2013-02-04 04:29:00,
2013-02-03 22:34:00,44.8,28.2,29.87,SSE,165,0.0,8.0,52,0.00,,,0.00,Wunderground v.1.15,2013-02-04 04:34:00,
2013-02-03 22:39:00,44.9,28.3,29.86,WSW,237,4.0,8.0,52,0.00,,,0.00,Wunderground v.1.15,2013-02-04 04:39:00,
2013-02-03 22:44:00,45.1,28.0,29.86,South,171,2.0,6.0,51,0.00,,,0.00,Wunderground v.1.15,2013-02-04 04:44:00,
2013-02-03 22:49:00,45.1,28.0,29.85,SW,215,1.0,9.0,51,0.00,,,0.00,Wunderground v.1.15,2013-02-04 04:49:00,
2013-02-03 22:54:00,45.2,28.1,29.85,WSW,250,3.0,7.0,51,0.00,,,0.00,Wunderground v.1.15,2013-02-04 04:54:00,
2013-02-03 22:59:00,45.2,28.1,29.85,SSE,147,1.0,7.0,51,0.00,,,0.00,Wunderground v.1.15,2013-02-04 04:59:00,
2013-02-03 23:00:00,45.2,28.1,29.85,SSE,163,6.0,6.0,51,0.00,,,0.00,Wunderground v.1.15,2013-02-04 05:00:00,
2013-02-03 23:01:00,45.2,28.1,29.85,SSE,166,4.0,6.0,51,0.00,,,0.00,Wunderground v.1.15,2013-02-04 05:01:00,
2013-02-03 23:06:00,45.2,27.6,29.85,West,271,1.0,6.0,50,0.00,,,0.00,Wunderground v.1.15,2013-02-04 05:06:00,
2013-02-03 23:11:00,45.3,27.7,29.85,SW,224,3.0,6.0,50,0.00,,,0.00,Wunderground v.1.15,2013-02-04 05:11:00,
2013-02-03 23:16:00,45.5,27.9,29.84,SSE,153,2.0,6.0,50,0.00,,,0.00,Wunderground v.1.15,2013-02-04 05:16:00,
2013-02-03 23:21:00,45.6,27.5,29.84,South,180,3.0,4.0,49,0.00,,,0.00,Wunderground v.1.15,2013-02-04 05:21:00,
2013-02-03 23:26:00,45.7,27.6,29.84,SW,223,2.0,7.0,49,0.00,,,0.00,Wunderground v.1.15,2013-02-04 05:26:00,
2013-02-03 23:31:00,45.9,27.8,29.83,West,264,5.0,5.0,49,0.00,,,0.00,Wunderground v.1.15,2013-02-04 05:31:00,
2013-02-03 23:36:00,46.0,27.4,29.83,SW,221,1.0,6.0,48,0.00,,,0.00,Wunderground v.1.15,2013-02-04 05:36:00,
2013-02-03 23:41:00,46.3,27.7,29.83,SSW,203,5.0,7.0,48,0.00,,,0.00,Wunderground v.1.15,2013-02-04 05:41:00,
2013-02-03 23:46:00,46.8,27.6,29.83,WSW,244,11.0,14.0,47,0.00,,,0.00,Wunderground v.1.15,2013-02-04 05:46:00,
2013-02-03 23:51:00,47.2,27.5,29.83,SW,221,4.0,10.0,46,0.00,,,0.00,Wunderground v.1.15,2013-02-04 05:51:00,
2013-02-03 23:56:00,47.3,27.5,29.82,ESE,121,4.0,11.0,46,0.00,,,0.00,Wunderground v.1.15,2013-02-04 05:56:00,